Aérodrome :
LOGIN :

S'inscrire | Disclaimer

   EN    FR    IT 

 










Légende :    VFR   VFR Marginal   IFR   IFR Intensif   IFR Très Intensif
Visi : 
Plafond : 
>= 8 km
>= 3000ft
5 à 8 km
1000 à 3000 ft
1500m à 5 km
500 à 1000 ft
800 à 1500m
200 à 500 ft
< 800m
< 200 ft
Symboles :   Orages  Brouillard  Fortes neiges  Fortes précipitations  Vent > 20 kt
SIGMETs :   Divers  Orages  Givrage  Turbulence  Onde Orograph.  Cendres Volcan.







- Altitude de l'aérodrome : 1249 ft


ETSN - Neuburg AB

DERNIER METAR :
  • 261720Z 05002KT 9999 SCT014 BKN024 05/03 Q1011 WHT

METARs EXPIRÉS :
  • 261620Z 04003KT 9999 -RA SCT013 BKN035 05/03 Q1010 BLU
  • 261520Z 02002KT 9999 -RA BKN014 BKN019 05/02 Q1011 GRN
  • 261500Z 36003KT 9999 -RA SCT017 BKN023 05/02 Q1011 WHT FCST CANCEL

TAF TAF ETSN
Valide du 26 à 17h jusqu'au 27 à 02h UTC


261632Z 2617/2702 35005KT 9999 NSW SCT012 BKN035
TEMPO 2617/2702 01005KT 4000 -RA BKN012 OVC020 BY ETGL
Pas de NOTAMs connus pour ce terrain.



MET'MAP, la Météo Aéronautique d'un coup d'oeil ! - Copyright ORBIFLY Décembre 2007 - Disclaimer

ORBIFLY MET'MAP TEAM :

Programmation & Développement : Alexandra Zaïnal
Conception & Développement : Baudouin d'Aumeries
Co-Programmation & Développement : Marc-Olivier Méhu
Soutien technique & logistique : Manuel Goepfert

Contact : metmap@orbifly.com




SOURCES & CREDITS :

   NOAA